This is the latest recevied weather packets stored in our database for station/object K1JO. If no packets are shown the sender has not sent any weather packets the latest 10 day(s).
| Time | Temp. | Humidity | Pressure | Rain* | Wind** | Luminosity | Snow |
|---|---|---|---|---|---|---|---|
| 1777920398 | 15° C | 63% | 1001.3 hPa | 0 mm | - | 239 W/m² | - |
| 1777920093 | 14.44° C | 64% | 1000.9 hPa | 0 mm | - | 207 W/m² | - |
| 1777919790 | 14.44° C | 64% | 1001.3 hPa | 0 mm | - | 214 W/m² | - |
| 1777919488 | 14.44° C | 67% | 1001.2 hPa | 0 mm | - | 406 W/m² | - |
| 1777919185 | 14.44° C | 64% | 1001.4 hPa | 0 mm | - | 365 W/m² | - |
| 1777918883 | 13.89° C | 66% | 1001.2 hPa | 0 mm | - | 328 W/m² | - |
| 1777918580 | 13.89° C | 69% | 1001.5 hPa | 0 mm | - | 244 W/m² | - |
| 1777918277 | 12.78° C | 71% | 1001.5 hPa | 0 mm | - | 285 W/m² | - |
| 1777917976 | 12.78° C | 68% | 1001.5 hPa | 0 mm | - | 288 W/m² | - |
| 1777917675 | 12.22° C | 71% | 1001.6 hPa | 0 mm | - | 139 W/m² | - |
| 1777917372 | 11.67° C | 71% | 1001.7 hPa | 0 mm | - | 155 W/m² | - |
| 1777917068 | 11.67° C | 72% | 1001.6 hPa | 0 mm | - | 116 W/m² | - |
| 1777916767 | 11.67° C | 69% | 1001.8 hPa | 0 mm | - | 116 W/m² | - |
| 1777916463 | 12.22° C | 69% | 1001.5 hPa | 0 mm | - | 88 W/m² | - |
| 1777916159 | 12.22° C | 69% | 1001.5 hPa | 0 mm | - | 64 W/m² | - |
| 1777915857 | 12.78° C | 66% | 1001.6 hPa | 0 mm | - | 62 W/m² | - |
| 1777915553 | 12.78° C | 64% | 1001.4 hPa | 0 mm | - | 74 W/m² | - |
| 1777915250 | 12.78° C | 63% | 1001.2 hPa | 0 mm | - | 65 W/m² | - |
| 1777914946 | 13.33° C | 62% | 1001.4 hPa | 0 mm | - | 86 W/m² | - |
| 1777914644 | 13.33° C | 61% | 1001.3 hPa | 0 mm | - | 118 W/m² | - |
| 1777914339 | 13.89° C | 61% | 1001.2 hPa | 0 mm | - | 213 W/m² | - |
| 1777914037 | 13.33° C | 63% | 1001.1 hPa | 0 mm | - | 225 W/m² | - |
| 1777913733 | 13.33° C | 65% | 1001.1 hPa | 0 mm | - | 154 W/m² | - |
| 1777913430 | 12.78° C | 65% | 1000.9 hPa | 0 mm | - | 153 W/m² | - |
| 1777913126 | 12.78° C | 63% | 1000.5 hPa | 0 mm | - | 92 W/m² | - |
* Rain latest hour (hover to see other rain measurements)
** Current wind speed in m/s (hover to see current wind gust speed)